Regional Weather Roundup
Issued by NWS

Home | Current Version | Previous Version | Graphics & Text | Print | Product List | Glossary On
Versions: 1 2 3 4 5 6 7 8 9 10 11 12 13 14 15 16 17 18 19 20 21 22 23 24 25 26 27 28 29 30 31 32 33 34 35 36 37 38 39 40 41 42 43 44 45 46 47 48 49 50
000
ASUS43 KDTX 300110
RWRMI
MICHIGAN HOURLY REGIONAL WEATHER ROUNDUP
NATIONAL WEATHER SERVICE DETROIT/PONTIAC MI
900 PM EDT MON SEP 29 2014

NOTE: "FAIR" INDICATES FEW OR NO CLOUDS BELOW 12,000 FEET WITH NO
SIGNIFICANT WEATHER AND/OR OBSTRUCTION TO VISIBILITY.

MIZ047>049-052>055-059>063-066>070-074>076-081>083-300200-
SOUTHEAST LOWER MICHIGAN

CITY           SKY/WX    TMP DP  RH WIND       PRES   REMARKS
ADRIAN         PTCLDY    63  57  81 CALM      29.92S
ALMA           LGT RAIN  62  59  89 N9        29.92R
ANN ARBOR      CLEAR     60  55  83 W5        29.90S
BAD AXE        HVY RAIN  61  61  99 N3        29.91R
DETROIT CITY   CLEAR     72  54  53 SW3       29.91S
DETROIT        PTCLDY    66  58  75 S6        29.90F
FLINT          CLEAR     68  57  68 SW5       29.89S
GROSSE ILE     CLEAR     64  61  88 CALM      29.89S
HILLSDALE      CLEAR     59  56  91 CALM      29.93S
HOWELL         CLEAR     65  56  72 CALM      29.90S

CITY           SKY/WX    TMP DP  RH WIND       PRES   REMARKS
JACKSON        CLEAR     61  58  90 CALM      29.92S
LAMBERTVILLE   CLEAR     61  55  82 CALM      29.91S
LANSING        MOCLDY    69  58  67 W6        29.90F
LAPEER         NOT AVBL
MASON          CLEAR     62  58  86 CALM      29.91S
MONROE         CLEAR     61  59  94 CALM      29.89S
MT. CLEMENS    CLEAR     64  63  99 SW5       29.87S
PONTIAC        PTCLDY    66  57  72 CALM      29.89F
PORT HOPE        N/A     62  61  96 N7        29.88R
PORT HURON     CLEAR     57  57 100 CALM      29.89S FOG
TRI CITIES     CLOUDY    62  58  86 N14       29.92R
YPSILANTI      CLEAR     64  56  75 S3        29.90F
$$
MIZ043>046-050>051-056>058-064>065-071>073-077>080-300200-
SOUTHWEST LOWER MICHIGAN

CITY           SKY/WX    TMP DP  RH WIND       PRES   REMARKS
BATTLE CREEK   CLEAR     65  56  72 CALM      29.92S
BIG RAPIDS     CLOUDY    51  51 100 N12       29.97R
COLDWATER      CLEAR     64  58  83 CALM      29.92F
HOLLAND        CLOUDY    63  57  81 NW5       29.95S
GRAND RAPIDS   CLOUDY    64  59  83 NW13      29.94R
KALAMAZOO      CLEAR     68  57  68 NW8       29.93R
MARSHALL       CLEAR     61  55  81 CALM      29.91S
MUSKEGON       RAIN      53  49  86 N14G22    29.98F FOG
$$
MIZ016>042-300200-
NORTHERN LOWER MICHIGAN

CITY           SKY/WX    TMP DP  RH WIND       PRES   REMARKS
ALPENA         LGT RAIN  52  51  97 N16       29.94R
BEAVER ISLAND  CLOUDY    47  44  90 N9G17     30.03S
BELLAIRE       CLOUDY    50  48  93 NW6       30.00R FOG
CADILLAC       DRIZZLE   48  48  98 NW10      29.98R
CHARLEVOIX     CLOUDY    51  49  92 N14G20    30.03R
FRANKFORT      LGT RAIN  49  45  87 N9G20     30.04R
GAYLORD        CLOUDY    48  47  96 N9G17     29.97R FOG
GRAYLING       CLOUDY    51  51  98 NW8       29.97R
HARBOR SPRINGS CLOUDY    48  46  91 N7        30.00R FOG
HOUGHTON LAKE  CLOUDY    50  49  96 NW13      29.96S
OSCODA         CLOUDY    56  55  96 NW10      29.90R
PELLSTON       CLOUDY    47  46  97 N13       30.01R
TRAVERSE CITY  DRIZZLE   50  47  89 NW15      30.00R FOG
$$
MIZ007>008-015-300200-
EASTERN UPPER MICHIGAN

CITY           SKY/WX    TMP DP  RH WIND       PRES   REMARKS
MACKINAC ISLAN MIX PCPN  46  45  99 N12G18    30.01R
NEWBERRY       CLOUDY    42  42  99 N8        30.04S FOG
S. S. MARIE    CLOUDY    44  38  79 VRB7G20   30.02R
$$
MIZ004>006-011>014-085-300200-
CENTRAL UPPER MICHIGAN

CITY           SKY/WX    TMP DP  RH WIND       PRES   REMARKS
MANISTIQUE     CLOUDY    42  40  93 N12G20    30.06R
SAWYER-GWINN   LGT RAIN  41  39  93 N15G21    30.11
$$
MIZ001>003-009>011-084-300200-
WESTERN UPPER MICHIGAN

CITY           SKY/WX    TMP DP  RH WIND       PRES   REMARKS
IRON MOUNTAIN  CLOUDY    42  37  82 N10G20    30.12R
HOUGHTON       CLOUDY    41  35  79 NE8       30.18R
COPPER HARBOR    N/A     44  38  79 E18       30.19R
$$

ABBREVIATIONS USED IN REMARKS
   TC - TEMPERATURE IN CELSIUS
  WCI - WIND CHILL INDEX
   HX - HEAT INDEX
  VSB - VISIBILITY



USA.gov is the U.S. government's official web portal to all federal, state and local government web resources and services.